Wind_Speed
15 15 15 16 16 16 17 17 17 17 17 17 17 17 16 16 16 16 16 15 15 15 15 15 15 15 16 16 17 17 17 16 15 14 13 13 11 8 8 8 7 6 5 4 4 4 4 4 4 4 5 6 7 10 13 14 14 12 10 9 9 10 11 10 10 11 12 11 8 8 9 9 9 9 8 5 2 3 5 6 7 8 8 9 11 12 12 11
14 14 15 15 15 16 16 16 17 17 17 17 17 17 17 17 16 16 16 15 15 14 14 15 14 15 15 16 16 17 16 16 15 14 14 13 11 9 8 8 8 7 6 5 6 5 4 4 5 6 7 8 9 11 13 14 15 14 13 12 11 11 10 9 9 10 11 12 9 6 6 6 6 6 6 3 3 5 7 7 7 7 7 9 11 13 12 11
13 14 14 15 15 15 16 16 17 17 17 17 18 18 18 18 17 17 16 15 14 14 14 14 14 14 14 15 16 16 16 15 15 14 13 12 10 9 8 8 8 7 7 7 7 6 4 3 5 6 8 10 12 13 13 14 15 15 14 13 11 10 9 9 9 9 9 12 13 9 5 6 5 5 5 3 3 6 8 7 7 7 9 10 12 13 12 11
13 13 14 14 14 15 15 16 16 17 17 17 17 18 18 18 18 18 17 16 15 14 14 14 14 14 14 14 15 15 15 15 14 13 12 12 10 8 8 8 7 7 8 8 7 6 4 2 4 7 9 11 13 15 15 15 15 14 12 10 9 9 9 9 9 9 9 10 13 10 2 4 4 5 5 3 3 5 7 7 8 9 10 10 12 13 12 11
13 13 13 14 14 14 15 15 16 16 16 16 17 17 18 18 18 18 18 18 16 15 15 14 14 14 14 14 14 14 14 14 13 12 12 12 10 8 7 7 7 8 8 8 7 7 4 1 2 5 8 10 13 16 16 15 14 13 12 11 10 10 9 9 9 9 9 7 8 7 0 6 5 5 5 3 3 5 7 8 10 10 10 11 12 13 12 11
13 14 14 14 14 14 15 15 15 15 16 16 16 16 17 18 18 18 18 19 18 16 15 15 15 15 14 14 14 14 14 14 13 12 12 12 10 8 7 7 7 8 8 8 8 8 6 3 0 3 7 9 11 14 15 14 13 13 12 11 10 9 7 7 6 7 8 7 4 5 1 5 5 3 3 2 4 5 8 9 11 11 11 11 12 12 12 12
14 14 14 14 14 14 15 15 16 16 16 16 16 16 17 17 18 18 18 19 18 17 17 16 15 15 15 13 13 13 14 14 13 12 11 12 10 7 6 6 6 6 7 8 9 10 8 5 3 3 6 8 9 11 12 11 11 11 11 11 11 10 7 7 7 5 6 5 3 4 2 3 3 2 3 4 6 7 10 11 12 12 11 11 11 11 11 11
14 14 15 15 15 15 15 16 16 16 16 16 16 16 17 17 17 18 19 19 19 18 18 17 16 16 15 13 13 13 13 13 12 11 11 11 10 7 5 4 4 4 6 7 9 9 7 7 6 6 8 8 7 8 10 10 10 11 11 10 10 9 6 6 5 4 3 2 2 4 2 3 2 3 4 6 8 10 11 12 12 12 11 11 10 10 10 10
14 14 15 16 16 16 16 16 17 17 18 17 17 17 17 17 17 17 18 19 19 19 19 18 17 16 15 13 13 13 13 13 12 11 10 9 9 7 4 3 3 3 3 5 7 7 7 8 8 8 8 7 5 6 8 10 10 10 10 9 8 8 6 5 3 3 4 3 1 3 4 4 3 3 4 6 8 10 11 12 13 12 11 10 10 9 8 9
15 16 16 16 17 17 17 17 17 17 18 18 18 17 17 16 16 16 17 18 18 19 19 19 18 16 15 14 14 13 13 12 12 11 9 8 8 7 5 3 3 3 2 3 5 6 7 9 10 9 7 6 4 3 6 7 8 8 8 9 9 8 6 5 5 5 6 5 2 2 1 2 3 5 6 6 7 9 10 11 12 12 11 9 9 8 7 8
17 17 18 18 18 18 18 18 18 18 18 18 18 18 17 16 16 16 16 17 17 18 18 19 18 17 16 16 15 14 13 12 12 11 9 7 7 7 5 3 3 3 3 4 4 5 6 7 9 9 7 6 5 2 2 3 5 7 8 9 9 8 6 6 6 6 6 6 5 4 3 3 6 7 7 7 7 9 10 11 11 12 11 9 8 7 7 8
19 19 19 20 20 20 19 19 19 18 18 18 18 18 17 16 16 16 15 16 16 17 18 18 18 17 16 16 16 15 13 12 11 11 9 7 5 5 5 5 4 3 4 4 3 2 3 5 7 7 7 6 5 5 3 3 5 8 9 10 10 8 7 8 9 7 5 5 4 4 4 4 5 6 6 6 7 9 9 10 11 12 12 10 8 7 7 8
20 20 21 21 21 21 20 20 19 19 19 18 18 18 18 17 16 16 15 15 16 16 17 17 17 17 17 16 16 15 14 13 12 11 10 8 5 3 3 5 5 4 3 3 2 0 1 4 5 6 7 6 5 8 8 7 7 11 12 11 10 10 9 9 9 6 5 5 4 4 5 4 4 4 5 5 6 8 8 9 11 12 12 11 9 8 7 7
20 21 21 21 21 21 21 21 20 19 19 19 18 18 18 17 17 17 16 15 15 16 16 17 17 16 16 16 15 15 14 14 13 11 10 8 7 4 2 3 5 5 4 3 1 0 0 3 3 4 7 5 4 9 12 9 9 11 12 11 10 11 11 10 8 8 8 7 6 6 6 5 3 3 4 4 5 7 7 8 10 11 11 11 11 9 7 6
20 21 21 21 21 21 21 21 21 20 19 19 18 18 18 18 17 17 17 16 16 16 16 16 16 15 15 15 15 14 14 14 13 12 10 8 7 5 2 2 3 4 5 3 2 1 1 2 2 3 6 5 5 10 11 10 11 12 12 12 12 11 11 10 8 8 9 8 7 7 5 4 3 3 4 3 5 7 6 7 8 9 10 11 11 10 8 5
21 21 21 21 21 21 20 21 21 20 19 19 18 18 18 17 16 16 17 17 16 15 15 15 15 14 14 14 14 14 13 13 13 12 11 9 7 6 4 3 0 2 4 3 2 2 2 3 3 4 6 6 6 8 9 11 12 12 12 13 13 12 11 10 7 8 9 8 7 7 5 4 3 4 6 5 6 7 7 6 6 7 9 10 11 10 8 6
22 21 21 21 20 20 19 20 20 21 20 19 18 17 17 16 16 16 16 16 16 16 15 15 14 13 13 13 13 13 13 12 12 12 11 9 7 6 4 3 1 1 3 2 2 3 4 4 5 6 8 8 8 8 9 11 12 12 13 14 14 13 12 10 7 8 10 9 7 8 7 6 5 6 7 5 5 6 5 4 4 5 6 7 9 9 8 7
23 22 21 21 20 19 19 19 19 20 20 20 19 17 16 16 16 16 15 15 15 15 15 15 14 13 12 13 13 13 12 11 11 10 9 8 8 7 5 4 4 3 2 1 3 4 5 5 6 7 9 10 10 9 9 11 12 13 14 15 14 13 12 10 8 9 10 9 9 9 8 7 7 8 8 5 4 5 4 3 4 5 6 6 7 8 8 7
24 23 22 21 20 19 19 19 19 19 19 20 19 18 17 16 15 15 15 15 15 14 14 14 14 13 13 13 13 13 12 11 10 9 9 8 7 7 7 7 7 5 3 3 4 4 5 6 7 8 10 11 10 10 10 11 11 13 15 16 15 14 12 11 10 12 11 10 10 10 9 9 10 10 9 6 6 6 6 5 5 6 7 7 7 8 8 8
24 23 22 21 20 20 19 19 19 19 19 20 20 19 18 17 16 15 15 15 15 14 14 14 14 14 13 13 13 12 11 11 11 10 9 9 7 7 8 8 9 7 4 3 4 4 5 6 7 8 9 11 10 10 10 11 11 13 15 17 17 16 15 14 13 14 14 12 11 12 12 11 12 11 10 8 7 8 7 7 7 8 8 9 9 9 8 9
25 24 22 21 20 19 19 19 19 19 18 19 20 20 20 19 17 16 15 15 14 14 14 14 14 14 13 13 13 12 11 11 11 10 10 9 8 7 7 7 8 9 7 5 3 3 5 7 7 7 8 9 9 9 9 10 11 13 15 17 18 19 18 18 17 17 17 15 14 15 14 13 13 12 11 10 9 9 9 9 9 10 11 11 12 12 11 10
25 24 23 21 20 20 19 19 19 19 18 18 20 20 20 20 19 17 16 15 14 14 14 14 14 14 14 13 13 12 11 10 10 10 10 9 8 7 7 7 7 8 8 7 5 3 5 6 6 7 7 8 9 9 8 9 10 13 16 17 19 20 20 20 19 18 17 15 15 15 15 15 15 14 13 12 11 11 11 11 11 11 12 13 14 15 14 13
25 24 23 21 21 20 20 19 20 20 19 18 20 20 20 21 20 19 18 16 15 14 14 14 14 15 14 14 13 12 12 11 10 10 9 9 9 7 6 7 7 8 8 8 6 5 5 5 6 8 8 8 10 10 9 9 10 13 16 18 20 21 21 20 18 17 16 15 15 16 16 17 17 16 15 14 13 13 13 12 11 11 11 11 13 14 15 15
25 24 23 22 21 21 21 20 20 21 20 19 20 20 21 21 21 20 19 18 17 16 15 14 15 14 14 14 13 12 12 11 10 9 9 9 9 8 6 6 7 7 8 9 8 7 6 5 6 8 9 10 11 11 10 10 11 12 14 16 19 21 21 20 18 17 17 17 18 18 18 18 17 17 18 17 17 16 15 13 11 11 11 11 11 13 15 16
25 24 24 23 22 22 22 22 21 22 21 21 21 21 22 23 23 22 21 20 18 17 16 15 15 14 13 13 13 13 12 11 10 9 9 9 9 8 7 6 6 7 8 9 8 8 7 6 6 8 9 11 11 11 11 10 10 10 12 13 16 18 19 19 18 17 18 19 20 20 20 20 19 18 20 20 19 18 15 13 12 12 12 12 11 12 14 16
25 25 24 24 24 23 23 23 23 23 23 23 22 22 23 24 24 23 22 21 20 18 18 17 15 14 13 13 13 14 13 12 11 10 10 10 9 9 8 7 6 7 8 8 7 7 7 7 7 7 8 10 11 12 12 11 10 10 11 12 13 14 15 17 17 17 18 20 21 21 21 22 20 19 20 20 17 15 13 12 12 13 13 12 13 13 14 16
26 26 25 25 25 25 24 24 24 25 25 25 25 25 25 26 26 25 24 22 21 19 18 18 17 16 14 13 13 14 13 12 12 12 11 11 10 10 8 7 7 8 8 7 6 6 7 8 8 8 8 10 12 13 13 11 11 11 11 11 12 13 14 14 15 17 18 20 22 22 23 23 21 18 18 17 15 13 13 13 14 14 14 13 13 14 14 16
28 27 27 27 27 27 26 25 26 27 27 27 28 28 27 27 27 26 25 23 22 20 19 19 18 17 16 14 14 14 13 13 13 13 12 11 11 10 9 8 7 8 9 8 7 6 7 7 7 7 9 11 12 13 13 12 13 13 12 12 11 12 13 13 14 15 17 19 21 22 22 23 21 17 17 16 14 14 14 15 15 14 14 14 13 14 14 15
31 30 29 29 28 28 28 28 29 30 29 29 30 30 29 28 28 27 26 25 23 21 20 19 19 18 17 16 15 14 14 15 14 13 13 12 12 11 10 9 9 8 9 9 9 7 7 7 7 7 9 11 11 12 13 13 14 14 14 14 13 12 12 12 12 14 16 17 18 20 21 22 21 17 16 17 16 16 16 16 14 13 14 14 13 14 15 16
34 32 32 31 30 30 30 30 31 32 32 31 31 31 30 29 28 28 27 25 24 22 21 20 20 19 18 16 15 15 15 16 15 14 14 14 13 12 11 10 10 10 9 10 10 9 8 7 7 8 9 11 12 12 13 13 13 13 13 13 13 13 13 13 12 13 15 15 15 18 20 22 21 15 14 17 17 17 17 15 14 13 13 14 14 15 16 17
36 35 34 34 33 32 32 32 33 34 34 32 32 32 32 30 29 28 27 26 26 25 22 21 19 18 19 17 16 16 16 17 17 16 16 15 15 14 12 11 11 11 11 11 11 11 10 9 8 8 10 12 12 13 13 13 12 11 11 12 12 13 14 14 14 15 16 15 15 17 18 20 20 15 14 17 18 17 16 15 14 13 13 13 15 16 17 17
39 37 36 36 36 35 34 34 35 35 35 34 33 34 34 33 30 28 28 27 28 26 23 21 19 18 19 18 17 17 17 17 18 18 17 17 16 15 14 13 12 12 12 12 12 12 12 12 10 10 11 12 13 14 14 14 12 11 10 11 12 14 15 16 17 17 17 17 17 17 17 18 18 16 15 16 16 16 16 15 15 14 13 13 14 16 17 17
41 39 38 38 38 37 36 35 36 36 35 35 35 35 36 36 32 29 29 30 29 27 24 24 21 20 20 20 20 20 18 19 19 19 18 17 17 16 15 15 14 13 13 14 14 13 14 14 13 12 12 13 14 15 15 15 14 12 12 12 13 15 17 17 18 19 18 18 18 18 19 18 17 17 17 17 16 16 16 16 15 15 14 13 12 14 15 16
43 42 40 39 39 38 37 36 36 36 37 37 37 37 37 37 34 31 31 32 31 29 27 26 24 22 21 21 23 22 20 21 21 20 19 17 17 17 17 16 16 15 14 15 15 15 15 16 15 14 14 14 15 16 17 17 16 15 14 15 16 17 19 19 19 19 19 19 19 19 19 19 18 18 18 18 18 17 17 16 15 15 14 13 13 12 13 15
46 44 42 41 40 40 38 37 37 37 38 38 39 39 38 36 35 35 34 33 32 30 28 26 25 24 22 22 24 24 23 23 22 21 20 18 16 17 18 18 18 17 17 16 16 17 17 16 16 17 17 17 17 18 19 18 18 17 16 17 18 18 20 21 20 20 20 19 18 18 19 18 18 19 19 19 19 19 18 18 17 16 14 13 13 13 12 13
48 46 45 43 42 41 40 39 39 39 40 40 41 41 38 36 36 36 36 35 34 32 29 27 26 25 24 23 24 25 24 24 24 24 22 19 17 16 18 20 20 19 19 19 19 18 18 17 17 18 18 19 19 19 20 19 19 19 18 19 20 20 21 21 22 22 22 20 19 18 18 18 18 20 21 22 22 21 21 20 19 17 16 14 13 13 13 12
51 49 47 45 45 44 42 41 42 42 42 42 43 42 39 37 36 36 37 37 35 33 31 29 28 27 27 25 25 26 26 25 26 25 24 22 20 17 18 21 22 22 22 22 22 20 19 19 19 18 18 18 19 20 20 20 21 22 22 21 22 22 23 23 24 24 24 23 21 18 17 17 18 20 21 23 24 23 23 21 20 19 17 16 14 13 13 13
53 52 50 48 48 47 44 44 45 44 44 45 44 42 39 37 36 35 37 38 37 36 34 31 30 30 29 27 26 26 26 26 27 26 25 25 23 19 19 22 24 24 25 25 24 23 22 21 21 21 20 19 19 20 21 21 22 23 24 23 23 24 25 25 26 26 26 27 25 22 18 15 16 18 20 22 23 23 22 21 20 19 18 16 15 14 14 13
55 54 52 51 50 50 47 46 47 47 47 47 44 41 39 37 37 36 36 37 37 38 37 34 33 33 31 29 28 27 27 27 28 27 26 26 25 22 22 24 25 25 25 26 27 26 26 24 22 21 21 22 21 20 21 23 24 25 25 25 24 25 26 27 27 27 27 29 29 27 22 15 13 16 19 21 23 22 22 20 19 19 17 16 16 16 16 15
58 57 55 54 53 52 51 49 49 49 49 47 44 41 39 38 38 38 37 37 37 38 38 37 35 35 34 32 29 28 29 29 28 28 28 27 26 25 25 25 25 26 26 27 27 28 29 27 24 23 22 22 22 22 22 23 26 26 26 26 26 26 27 28 29 28 28 31 31 30 27 17 13 16 18 21 23 23 22 21 20 19 18 17 17 17 17 17
61 60 58 57 56 55 54 53 52 51 50 48 44 41 40 39 40 39 38 38 38 37 38 38 38 37 35 34 32 30 30 30 30 30 30 29 28 27 27 27 27 27 27 27 28 28 29 29 28 27 24 22 21 23 24 24 26 27 28 28 27 28 29 30 31 30 30 33 33 33 32 22 15 18 19 20 22 23 23 22 21 21 20 19 19 19 19 19
63 62 60 60 59 57 57 56 54 53 51 48 45 42 41 42 41 40 39 39 39 38 39 40 40 39 37 36 35 33 33 32 32 31 31 31 30 29 30 30 30 29 29 28 28 29 30 31 31 31 29 26 24 23 24 25 27 28 28 29 28 29 30 30 31 31 32 35 34 35 36 27 18 18 20 20 21 22 23 24 24 24 23 23 23 22 21 21
63 63 62 62 61 59 59 58 56 54 52 49 46 44 43 43 42 40 39 40 41 40 40 41 42 41 40 38 37 36 36 35 33 32 32 33 32 31 32 32 32 32 30 29 28 29 31 33 34 33 32 32 29 26 24 25 27 29 29 29 30 30 30 30 31 31 33 36 35 36 39 30 21 21 21 20 21 22 23 25 26 26 26 26 26 24 23 23
62 63 63 63 62 61 60 58 55 53 52 50 48 47 46 45 44 42 40 41 42 42 42 42 43 43 41 40 40 39 38 37 36 35 34 35 34 33 34 35 35 34 32 30 30 30 32 34 35 35 34 34 33 31 28 26 27 29 29 30 31 31 31 31 32 33 35 36 35 38 40 32 26 26 23 20 21 22 22 24 26 27 26 26 26 25 25 25
62 63 64 64 64 62 60 57 55 54 53 53 52 50 48 47 45 43 42 42 43 44 43 44 44 44 43 42 42 41 40 39 39 38 36 36 35 35 35 36 36 34 33 32 32 32 33 34 35 35 35 35 34 34 33 31 31 30 28 29 32 33 34 34 35 37 37 35 35 39 38 33 30 29 25 22 22 22 23 25 28 29 26 25 25 25 25 26
63 62 63 63 64 63 60 57 56 55 55 55 54 52 50 48 45 44 44 44 44 45 46 46 46 46 45 45 44 43 43 41 41 40 39 37 37 37 36 36 36 35 35 34 35 35 35 35 35 35 35 36 35 36 36 35 35 33 30 29 31 34 36 37 39 39 36 35 37 38 36 34 32 31 28 23 22 23 24 26 30 31 27 24 24 24 24 24
64 64 63 63 62 60 58 57 57 57 56 56 56 53 50 48 47 46 45 45 46 46 47 47 47 47 47 46 45 45 44 43 42 41 41 40 39 38 37 37 36 35 36 37 37 37 37 37 36 36 36 36 36 37 37 37 38 37 35 33 32 34 37 38 39 38 36 37 39 36 36 37 34 31 28 24 24 27 27 28 32 31 28 25 23 22 22 22
66 64 64 64 62 60 58 56 56 57 57 56 55 54 52 50 49 49 48 47 47 47 48 49 48 48 47 47 47 46 46 45 44 43 42 41 40 39 38 37 36 35 37 39 40 39 39 38 38 38 38 38 37 37 38 38 38 38 39 37 35 35 37 37 37 37 39 41 40 38 38 39 36 33 29 24 25 29 30 32 33 30 28 26 22 20 20 21
66 65 65 65 64 62 59 57 57 57 56 55 54 53 52 52 51 51 50 49 48 48 49 50 49 48 48 49 49 49 48 47 46 45 44 43 42 41 40 38 37 37 38 39 41 41 41 40 39 39 40 40 39 38 39 39 39 40 40 40 39 38 37 36 36 37 39 42 42 41 42 43 40 37 32 28 28 31 32 33 31 29 28 26 22 19 18 19
65 65 65 65 63 59 56 55 55 55 55 55 54 53 53 53 52 51 50 50 50 50 50 50 50 49 50 50 50 50 49 49 48 47 46 45 44 43 42 40 39 39 39 40 41 41 41 41 41 40 41 41 41 40 40 40 41 42 42 43 43 40 37 37 37 37 39 41 41 42 45 45 40 35 34 34 32 32 32 32 29 28 28 26 23 21 21 20
62 62 63 62 59 56 53 52 52 53 53 54 54 54 54 54 53 51 51 50 50 51 52 52 52 52 52 52 52 51 51 51 50 49 48 47 46 44 43 42 41 40 40 40 41 41 41 41 41 41 43 43 41 41 42 41 42 44 44 45 45 42 40 39 38 37 38 39 39 41 43 43 39 36 36 36 35 34 33 32 30 27 26 26 25 24 24 23
60 60 60 59 58 55 54 52 51 52 52 52 53 54 53 53 53 53 52 51 50 51 53 53 54 54 54 54 54 53 53 53 53 51 50 49 47 46 45 43 42 41 41 41 40 40 40 40 41 42 44 43 42 43 43 44 45 45 44 44 43 43 43 42 39 36 36 38 40 41 40 40 41 39 37 36 35 36 35 33 30 27 26 26 26 25 25 24
Wind_Direction
38 37 37 37 36 35 34 33 31 29 28 26 24 22 21 21 19 19 19 19 21 23 22 21 20 21 19 17 15 14 13 12 13 17 21 22 21 30 40 38 37 37 36 31 24 28 44 75 91 97 110 128 141 145 140 134 138 149 159 172 191 202 203 201 205 213 211 210 217 226 235 232 235 227 197 167 121 53 10 352 332 322 324 330 331 324 313 306
32 32 32 32 31 30 30 30 30 28 26 24 22 21 19 18 17 16 16 17 18 20 21 19 20 20 19 19 17 17 16 15 16 19 23 26 27 37 43 41 40 38 37 33 28 30 41 76 94 102 115 125 135 145 143 142 150 157 159 169 186 198 200 201 208 214 216 216 216 234 240 212 195 192 174 120 60 33 20 3 333 314 320 328 330 329 323 319
25 25 26 26 25 25 24 25 26 26 25 23 21 19 18 16 15 14 12 14 16 18 18 17 18 18 18 19 19 19 19 19 20 20 25 30 34 42 47 45 42 38 35 31 28 28 34 74 102 111 123 132 138 145 151 155 162 164 162 171 186 194 199 203 208 210 217 226 230 243 236 187 161 136 124 80 34 24 22 8 346 327 320 322 327 328 327 326
13 15 17 18 19 19 18 19 20 22 23 22 20 18 17 15 14 12 9 10 13 16 17 16 15 15 17 18 19 21 21 23 24 21 28 36 38 45 54 51 45 42 38 30 24 25 28 61 111 122 130 139 144 148 158 168 170 167 168 176 186 194 201 204 208 207 209 227 241 248 205 130 114 86 83 51 13 13 12 4 356 342 324 318 323 325 324 327
3 4 6 8 9 11 11 12 14 16 17 18 18 17 16 15 14 11 8 8 10 13 16 16 13 12 15 16 19 21 22 27 28 23 29 39 42 48 59 58 49 42 39 32 23 22 20 33 126 134 135 143 151 154 163 175 171 164 172 182 189 201 202 199 206 213 212 221 250 258 204 80 68 60 60 33 357 357 352 353 348 337 327 320 319 321 322 325
355 356 357 359 0 2 3 4 6 9 11 11 13 14 14 13 13 11 8 7 8 10 13 15 12 9 11 13 17 21 23 27 29 26 30 40 45 50 62 67 58 46 41 34 26 24 18 8 69 137 133 140 152 158 164 172 172 167 178 189 197 209 204 192 201 218 226 231 269 282 325 55 52 44 37 352 335 344 341 342 337 328 326 322 319 320 323 326
347 347 349 351 353 355 356 357 358 0 3 4 5 7 9 10 11 10 9 7 7 9 10 12 12 9 6 8 14 19 23 25 27 28 32 42 49 52 65 76 74 65 59 53 46 35 26 23 20 80 109 122 140 154 162 170 175 180 194 203 209 214 202 193 193 204 231 240 302 329 11 59 53 13 356 337 335 340 336 333 327 322 322 321 319 318 323 328
341 342 342 342 344 347 350 352 353 354 355 356 357 359 2 5 7 8 8 6 6 7 9 10 12 9 2 4 11 15 21 21 22 28 35 47 54 56 67 84 88 85 83 82 71 51 44 56 56 69 88 103 128 149 161 172 183 194 209 217 224 233 230 222 207 203 236 230 337 352 47 90 73 28 2 345 340 338 332 325 319 316 315 316 317 317 324 332
336 338 339 339 339 340 342 344 346 348 350 351 352 352 355 358 2 5 5 5 4 4 6 8 12 9 2 3 8 10 17 17 17 24 33 50 61 64 69 73 69 81 99 99 85 67 69 81 77 73 80 93 118 151 167 178 191 204 219 227 237 251 257 263 250 220 229 218 336 357 57 72 49 8 346 337 333 329 323 317 313 311 310 311 314 317 323 332
332 334 336 337 337 338 337 337 339 341 344 347 349 349 350 352 355 359 2 3 3 2 3 5 8 8 5 5 5 6 12 13 14 19 25 47 67 75 77 57 45 56 66 71 74 76 87 96 92 82 80 84 92 146 185 195 205 215 227 233 244 252 256 273 264 221 211 209 227 272 46 37 311 303 310 316 317 313 311 309 307 306 306 308 312 320 325 331
329 332 333 335 335 336 336 337 337 338 339 342 345 348 348 348 349 352 355 358 0 1 0 2 4 6 6 6 3 3 4 5 11 15 16 37 66 80 86 79 61 51 38 44 64 84 98 103 100 95 89 85 82 101 201 219 224 228 231 237 247 254 255 263 252 223 212 215 220 235 247 268 275 283 291 298 300 296 296 296 298 300 301 304 311 328 339 343
326 328 331 332 333 334 335 336 337 338 338 338 342 346 346 346 346 346 348 352 356 359 359 359 0 2 5 6 3 360 357 357 4 9 9 21 52 80 97 100 94 81 57 54 65 92 104 104 105 107 103 104 114 123 149 197 214 217 221 230 240 245 237 231 229 219 214 220 222 228 225 236 256 267 275 285 291 290 288 283 284 292 299 306 315 336 356 10
321 324 326 328 329 331 332 333 335 337 337 337 339 342 344 345 345 344 344 344 349 355 356 357 358 360 3 4 4 0 355 354 356 2 7 12 31 65 100 104 110 118 101 78 76 102 117 109 118 125 120 119 133 149 162 180 196 202 209 216 223 231 227 218 214 195 180 194 209 209 197 204 231 250 261 271 282 286 290 284 281 287 298 309 321 340 6 33
317 320 323 325 326 328 329 330 332 334 335 334 336 338 339 342 344 344 343 341 343 349 353 355 356 358 359 1 4 3 359 355 350 354 2 8 18 28 69 103 118 134 142 136 118 221 160 124 139 142 136 135 160 169 168 170 178 186 195 199 209 225 223 212 200 175 168 177 187 193 198 207 217 243 251 261 286 291 295 292 288 288 296 309 321 335 357 30
314 316 319 321 323 325 326 327 328 331 332 332 334 335 335 338 341 342 342 341 340 344 348 350 353 354 355 358 1 3 3 358 349 346 353 2 12 11 5 65 120 144 153 165 166 176 205 172 183 165 156 163 188 183 174 169 171 174 180 187 204 218 219 216 201 177 178 183 185 188 200 216 222 260 268 291 317 318 319 313 307 302 300 307 315 324 335 356
309 312 315 317 320 321 323 324 325 327 328 330 332 333 333 334 338 340 340 340 339 341 342 344 349 350 352 356 356 360 6 2 351 344 345 352 5 12 0 352 49 153 153 172 194 190 203 215 214 200 193 198 204 197 184 176 177 177 179 185 197 205 215 224 200 178 195 203 205 207 214 235 256 277 281 302 331 346 349 338 331 321 311 308 307 310 317 325
306 308 311 313 315 317 319 321 322 324 325 326 329 331 330 331 334 337 338 339 338 338 338 339 344 346 347 350 352 357 5 5 355 344 341 344 352 8 6 336 313 136 148 184 224 218 218 226 226 222 222 228 230 217 194 187 190 187 186 194 202 204 216 228 205 197 214 217 224 235 239 248 261 272 275 290 334 353 353 349 341 326 312 306 301 299 304 311
303 305 307 308 310 312 314 316 318 320 322 324 326 327 327 328 330 331 335 337 336 335 334 334 338 341 340 342 348 354 359 3 1 348 341 343 346 356 360 346 353 25 39 267 257 243 236 237 239 237 237 243 248 237 210 199 200 196 197 207 216 218 220 226 217 218 229 226 230 244 250 254 259 267 276 288 322 328 326 333 338 332 317 304 296 290 290 296
299 301 303 304 305 307 309 312 314 317 320 321 322 323 322 323 324 326 330 333 334 333 332 330 333 335 334 336 341 345 349 355 1 355 345 345 352 355 355 351 350 356 351 304 280 273 262 252 254 253 248 252 256 249 231 217 210 208 212 219 226 231 230 227 223 226 234 234 238 248 254 260 265 272 283 297 316 318 313 312 324 335 332 318 304 290 281 280
295 297 298 299 300 302 305 307 309 313 317 318 318 319 318 318 319 321 324 328 330 330 329 327 329 330 329 330 331 334 341 345 351 353 348 345 353 358 358 355 347 338 330 310 290 287 282 272 270 266 260 261 261 254 244 234 226 223 226 229 233 238 238 234 229 232 240 241 245 255 258 258 267 284 299 306 311 309 305 305 311 317 320 319 311 298 284 273
292 292 293 294 295 297 300 303 305 308 313 314 314 315 314 314 315 317 318 322 324 326 327 325 325 326 325 323 324 327 333 338 340 343 344 342 345 358 4 1 352 341 333 329 322 297 281 279 276 272 270 268 262 256 250 244 240 238 238 238 240 242 244 245 242 240 245 248 251 260 265 265 274 294 308 310 307 306 306 307 307 306 305 304 299 289 280 269
288 289 289 291 292 294 296 299 301 304 308 309 308 310 311 310 311 311 312 315 317 319 323 321 320 321 320 318 319 322 327 332 332 331 335 336 336 350 4 5 1 350 334 326 333 321 293 291 282 272 273 270 264 261 253 247 246 249 250 247 246 248 249 251 252 248 249 252 256 263 269 272 280 293 304 308 307 305 303 301 301 301 301 298 291 280 272 268
285 286 287 288 290 292 294 297 299 302 304 304 304 305 305 305 305 306 306 308 309 313 315 315 315 315 314 313 313 317 323 325 324 323 324 325 326 337 357 4 0 350 332 318 322 327 318 311 293 277 275 273 271 269 262 255 253 255 256 252 250 252 252 252 255 256 257 259 263 268 272 275 281 289 298 302 301 300 297 296 297 298 300 296 286 274 263 260
283 284 285 286 288 291 293 295 298 300 302 302 302 301 300 299 299 300 302 303 304 307 308 308 309 309 309 308 308 312 316 316 316 315 313 315 319 326 343 358 352 340 327 315 314 324 329 322 297 278 274 276 276 277 273 264 259 256 255 253 250 251 252 253 255 257 259 264 269 272 274 277 282 286 291 294 295 296 295 295 296 295 294 289 279 269 256 249
281 283 284 286 287 290 292 294 296 298 300 301 301 301 299 297 296 296 298 299 300 301 302 302 302 303 303 302 302 306 309 310 310 307 304 304 311 322 333 343 339 327 318 311 312 322 325 314 294 278 273 278 282 284 282 273 262 254 250 253 254 253 255 259 263 262 259 260 267 273 274 276 281 283 284 287 290 292 293 294 292 287 283 278 273 269 256 245
279 280 282 285 286 288 290 292 294 296 298 299 300 300 298 295 294 294 294 294 295 296 297 296 295 294 294 293 295 301 303 303 304 302 298 300 311 321 323 325 324 309 298 301 312 318 312 298 285 278 272 273 278 282 285 281 270 259 251 251 254 257 259 263 269 270 266 261 263 270 274 275 278 278 278 281 285 288 291 290 284 280 279 275 272 269 259 248
276 278 279 281 284 285 287 289 292 293 295 297 298 298 297 294 293 291 291 291 291 292 292 291 289 287 286 286 291 296 295 295 300 300 299 303 311 314 311 309 305 294 284 288 300 300 293 286 279 279 278 275 276 279 284 285 279 274 266 257 254 255 258 262 268 271 271 267 265 268 272 275 279 280 277 279 282 287 289 284 281 281 282 278 272 267 261 252
274 275 277 278 280 282 284 286 288 291 293 295 296 296 294 291 290 289 289 288 288 289 288 286 284 283 282 283 286 288 288 290 295 297 297 298 301 303 300 291 283 278 274 276 280 271 268 270 265 266 270 273 275 277 281 283 282 284 283 277 267 260 258 260 264 267 269 271 272 273 275 278 284 288 285 283 284 284 283 281 282 282 282 281 274 265 258 253
273 274 274 275 277 279 281 283 285 288 291 293 294 294 292 288 286 285 284 284 285 285 283 281 280 278 278 279 281 281 282 286 288 289 288 288 291 293 289 281 275 265 260 266 273 266 258 259 258 259 265 275 281 280 281 283 284 287 288 286 282 276 270 264 263 264 267 273 276 277 280 282 286 290 286 283 283 281 280 280 279 277 277 280 275 264 254 249
271 272 272 273 274 275 278 281 283 286 288 290 292 293 292 288 284 282 281 280 280 280 278 277 277 275 274 275 276 275 276 280 282 281 279 278 282 284 280 277 276 269 257 257 267 273 268 259 260 268 273 283 289 287 285 285 285 287 289 290 290 288 285 280 276 272 273 278 275 273 278 282 288 293 283 277 277 277 278 277 273 274 278 284 282 271 258 249
269 270 270 272 272 273 274 277 281 283 285 288 290 291 290 287 283 280 278 276 275 275 274 273 274 272 272 272 269 268 271 274 275 275 273 273 275 278 277 275 275 274 265 258 263 274 276 268 261 265 271 277 283 284 285 287 286 283 286 292 293 292 289 287 284 281 281 283 276 272 277 281 289 295 283 275 277 278 278 278 279 280 281 285 287 279 266 254
267 268 268 270 270 271 272 274 277 279 282 285 287 288 288 285 282 278 275 272 271 271 271 270 268 266 267 267 263 263 266 268 269 269 269 271 274 276 275 273 272 272 269 266 266 269 275 274 266 264 266 269 273 275 278 282 282 278 281 288 290 290 290 289 289 288 289 287 283 280 281 284 290 292 284 280 280 279 279 279 280 281 278 280 285 284 277 265
265 266 266 267 269 269 270 271 273 276 278 281 284 285 284 283 281 277 272 268 267 268 267 266 264 261 261 262 263 264 264 264 266 267 268 270 273 276 276 273 270 269 270 271 270 268 270 271 270 268 266 266 269 272 274 276 278 276 277 281 284 286 288 289 290 292 294 293 291 289 288 291 294 292 288 287 285 282 279 276 276 277 277 277 279 283 281 272
263 264 264 265 266 267 268 268 270 272 275 278 280 281 281 282 281 274 267 264 264 265 264 264 263 261 259 260 264 265 263 264 266 267 268 270 272 276 277 275 274 272 271 270 271 270 268 269 273 272 267 265 269 272 273 273 274 275 276 278 280 284 286 288 290 292 293 293 293 294 295 298 298 294 291 289 287 285 282 279 280 281 282 282 281 281 275 267
262 262 262 263 264 265 265 265 266 268 271 274 277 277 278 280 278 271 266 263 261 261 261 261 261 260 257 256 260 263 263 265 267 265 264 264 266 271 276 278 278 275 272 270 268 267 266 267 271 272 269 267 269 271 272 272 273 275 278 280 281 281 283 287 289 291 291 290 290 291 293 298 300 299 296 291 289 289 288 288 287 286 287 287 283 279 274 267
260 260 260 261 261 262 262 263 264 266 268 271 273 275 276 277 276 271 266 264 260 258 258 259 259 258 256 254 256 260 262 264 267 267 266 263 257 258 266 272 273 273 271 269 266 265 265 264 265 267 268 268 271 272 273 273 276 278 279 279 280 280 281 284 287 288 288 287 286 288 292 298 303 305 303 299 297 295 294 294 294 293 292 290 285 281 278 273
259 259 259 259 260 260 260 261 262 264 266 268 270 273 273 274 275 271 266 264 261 259 257 257 257 256 255 254 254 257 260 262 264 266 268 267 260 252 254 260 264 266 266 265 264 263 263 263 262 263 265 267 270 272 272 272 274 279 280 279 280 283 283 284 285 286 287 287 287 289 294 301 308 308 306 303 302 300 299 299 298 297 296 294 290 284 279 275
258 259 259 258 258 259 258 259 260 262 264 266 268 271 271 270 273 271 267 265 264 261 258 256 255 255 255 254 253 255 257 260 262 263 264 265 264 258 253 255 257 259 260 263 264 263 261 260 260 262 265 266 266 268 271 272 270 273 277 279 282 286 286 285 285 287 289 289 290 291 293 302 308 305 304 303 302 302 302 302 301 299 297 295 290 285 280 274
257 258 258 257 258 258 258 258 259 260 262 264 267 268 267 267 268 268 268 268 267 264 260 257 256 256 256 255 255 256 257 257 259 260 259 260 261 259 256 255 256 258 259 263 265 266 264 259 255 257 261 264 265 267 272 275 274 273 274 277 280 283 284 285 284 285 287 288 289 289 290 298 308 304 304 304 302 302 302 300 298 295 291 287 286 286 283 276
256 256 257 257 257 257 257 257 258 259 260 263 264 264 263 263 263 264 266 268 269 266 261 257 257 258 258 258 257 257 258 258 259 260 260 260 261 261 260 258 260 261 261 262 265 267 269 267 263 259 257 260 265 269 269 272 275 277 278 279 280 282 283 283 284 284 286 287 288 287 286 291 303 301 301 302 301 301 301 298 295 291 287 284 285 286 286 282
255 256 256 256 256 256 257 257 257 258 259 260 260 259 258 258 258 260 262 265 267 268 263 259 257 258 258 258 257 256 256 257 258 260 261 262 263 264 265 264 264 264 265 267 269 271 273 275 275 272 267 264 264 266 267 269 272 276 279 281 284 285 284 285 286 287 288 287 287 287 285 287 299 297 294 296 298 298 298 296 293 291 290 289 289 290 289 286
255 255 255 254 255 255 256 256 256 257 257 258 257 255 254 254 255 256 259 262 264 264 262 259 257 257 257 257 256 256 256 256 257 258 260 262 262 264 266 266 266 266 267 270 273 276 277 278 279 279 278 274 269 266 268 271 273 275 278 282 285 285 285 286 287 289 289 287 288 288 284 285 296 294 288 290 293 294 294 292 292 291 291 291 292 293 292 289
255 255 254 253 253 254 254 255 256 256 257 257 255 253 251 252 252 254 256 260 262 261 258 257 256 256 256 256 255 254 254 255 255 256 259 260 261 262 264 266 267 268 269 271 272 274 276 277 278 278 279 279 277 274 271 271 274 276 279 280 281 282 284 285 286 288 288 287 290 289 284 285 291 286 283 287 288 288 289 289 289 289 289 291 293 294 293 291
256 257 257 255 254 254 254 255 256 257 257 256 254 252 250 250 251 253 254 256 259 259 257 256 255 253 254 255 255 253 253 254 254 254 255 257 259 260 262 264 266 268 271 272 271 270 271 273 275 277 278 279 280 280 277 273 271 273 276 278 281 283 284 284 285 285 284 286 289 287 284 287 286 280 282 286 283 283 284 284 284 284 285 288 290 293 293 291
255 257 258 257 256 255 255 255 256 256 257 256 254 251 250 250 251 253 253 254 256 258 257 256 253 252 252 252 253 253 253 253 253 254 253 254 256 257 259 262 266 268 270 271 270 269 269 269 271 274 277 278 279 280 279 276 273 271 273 277 281 283 283 283 282 281 284 288 286 284 286 287 282 281 284 284 280 280 280 281 280 280 281 284 288 290 290 291
255 257 258 257 256 255 254 254 255 255 256 256 255 253 252 252 252 252 252 252 254 255 255 254 251 250 250 249 250 252 252 252 253 254 255 255 254 256 258 260 264 266 268 269 269 270 270 269 269 271 273 275 277 277 277 278 278 277 275 274 276 279 280 280 278 279 285 286 283 285 289 287 282 282 283 281 278 275 273 275 277 278 281 285 288 288 286 287
255 256 257 257 256 254 254 253 254 254 254 254 255 254 254 253 253 252 251 252 253 253 253 252 251 250 249 249 251 252 253 253 253 254 256 257 256 256 257 259 262 264 267 268 269 269 270 270 271 270 271 272 273 274 276 278 279 280 279 276 275 275 276 276 278 281 284 282 281 284 285 283 282 282 282 281 276 272 271 271 273 277 283 287 288 288 286 286
253 254 256 256 254 253 254 254 254 254 253 252 253 253 254 253 253 253 253 253 254 253 252 251 251 250 250 250 251 252 252 253 253 253 255 257 257 257 257 258 260 260 262 265 266 267 268 269 271 272 272 272 273 274 276 277 278 279 280 279 277 274 274 275 278 282 283 281 281 281 279 278 279 281 284 284 275 270 268 268 272 278 283 285 287 289 290 289
250 252 254 255 253 252 253 252 253 254 253 252 252 252 253 253 253 254 254 254 254 253 252 251 249 249 249 250 250 251 251 251 251 252 253 255 256 257 257 258 257 257 257 259 262 265 266 267 269 271 272 273 274 275 276 277 278 278 279 279 277 275 276 277 278 278 278 278 279 279 278 277 277 280 285 281 272 268 267 269 273 277 279 283 289 293 294 291
248 250 253 253 251 249 249 248 249 251 251 251 251 251 251 252 252 253 254 253 253 253 251 250 249 248 249 249 249 250 250 250 250 251 252 254 255 256 257 257 257 256 256 257 259 262 264 266 268 270 272 273 274 276 277 278 279 279 279 279 279 279 281 281 278 276 275 276 277 277 276 277 279 282 281 276 272 272 272 271 271 272 276 284 292 295 295 291
250 250 250 249 247 245 244 244 246 248 249 250 251 250 249 249 250 252 253 252 252 252 250 248 247 248 248 249 248 248 249 250 250 251 252 253 254 254 256 257 258 258 258 258 259 260 262 264 267 269 270 272 274 275 276 277 278 278 279 280 283 285 285 282 280 280 280 280 277 274 274 276 278 278 275 273 273 274 272 270 269 272 279 286 290 294 295 291
251 249 246 245 244 244 243 243 244 245 248 249 250 249 248 248 249 251 252 251 251 251 251 248 247 247 247 247 246 247 249 249 250 251 251 251 253 254 255 256 257 259 261 261 262 263 264 265 266 267 269 272 273 274 275 277 277 277 280 283 285 286 284 283 285 287 285 282 277 274 273 274 274 272 271 271 271 273 273 271 270 274 280 285 288 292 293 291
Height
5837 5836 5835 5833 5832 5831 5830 5828 5827 5826 5825 5823 5822 5820 5818 5817 5815 5814 5812 5811 5809 5808 5807 5806 5804 5803 5801 5800 5798 5797 5795 5794 5792 5791 5789 5788 5787 5787 5786 5786 5786 5786 5786 5786 5786 5785 5785 5785 5786 5786 5787 5788 5790 5791 5793 5794 5795 5796 5797 5798 5799 5800 5801 5802 5803 5804 5805 5806 5807 5808 5809 5809 5809 5810 5810 5810 5811 5812 5812 5812 5812 5812 5812 5812 5812 5811 5810 5810
5838 5837 5836 5835 5833 5832 5831 5829 5828 5827 5825 5824 5822 5821 5819 5818 5816 5814 5813 5811 5810 5809 5807 5806 5805 5803 5802 5800 5799 5797 5795 5794 5793 5791 5790 5789 5788 5787 5787 5787 5787 5787 5786 5786 5786 5786 5786 5786 5786 5787 5787 5789 5790 5792 5794 5795 5795 5795 5796 5797 5798 5799 5801 5803 5804 5805 5806 5807 5808 5808 5809 5809 5809 5809 5809 5810 5810 5811 5811 5811 5811 5811 5811 5811 5811 5810 5810 5810
5839 5838 5837 5836 5834 5833 5832 5830 5829 5828 5826 5825 5823 5822 5820 5819 5817 5815 5813 5812 5810 5809 5808 5806 5805 5804 5802 5801 5799 5797 5796 5794 5793 5792 5790 5789 5789 5788 5788 5788 5788 5788 5787 5787 5787 5787 5787 5787 5787 5787 5788 5789 5790 5792 5794 5795 5795 5795 5796 5797 5798 5799 5801 5802 5803 5805 5806 5807 5807 5809 5809 5808 5808 5808 5808 5809 5810 5810 5810 5810 5810 5810 5810 5810 5810 5810 5809 5809
5840 5839 5838 5836 5835 5834 5833 5831 5830 5829 5827 5826 5824 5823 5821 5819 5818 5816 5814 5813 5811 5809 5808 5807 5805 5804 5803 5801 5799 5798 5796 5794 5793 5792 5791 5790 5789 5789 5789 5789 5789 5788 5788 5788 5787 5787 5787 5787 5788 5788 5789 5790 5791 5791 5793 5794 5795 5795 5796 5797 5798 5799 5801 5802 5803 5804 5805 5807 5808 5809 5809 5808 5808 5808 5808 5809 5810 5810 5809 5809 5809 5809 5809 5809 5809 5809 5809 5809
5840 5839 5838 5837 5836 5835 5833 5832 5831 5830 5828 5827 5825 5824 5822 5820 5819 5817 5816 5814 5812 5810 5809 5807 5806 5805 5803 5802 5800 5798 5796 5795 5793 5792 5792 5791 5790 5790 5790 5789 5789 5789 5789 5788 5788 5788 5788 5788 5788 5789 5790 5791 5792 5792 5792 5793 5795 5796 5796 5797 5798 5799 5800 5803 5804 5804 5805 5807 5808 5809 5808 5807 5807 5808 5808 5809 5809 5809 5809 5809 5809 5809 5809 5808 5808 5808 5808 5808
5840 5839 5838 5838 5837 5835 5834 5833 5831 5830 5829 5827 5826 5824 5823 5821 5819 5818 5816 5815 5813 5811 5810 5808 5807 5805 5804 5802 5800 5799 5797 5795 5794 5793 5792 5791 5791 5791 5791 5790 5790 5790 5789 5789 5789 5789 5789 5789 5789 5790 5791 5792 5793 5793 5793 5794 5795 5796 5797 5797 5798 5799 5800 5803 5804 5805 5806 5807 5808 5808 5807 5807 5807 5807 5808 5809 5809 5809 5808 5808 5808 5808 5808 5808 5808 5808 5807 5807
5840 5839 5838 5837 5837 5836 5834 5833 5832 5831 5829 5828 5826 5825 5823 5822 5820 5819 5817 5815 5814 5812 5811 5809 5807 5806 5804 5803 5801 5799 5797 5796 5794 5793 5792 5792 5791 5792 5792 5791 5791 5791 5790 5790 5790 5790 5790 5790 5791 5791 5792 5793 5793 5794 5794 5795 5796 5796 5797 5797 5798 5799 5800 5802 5803 5805 5806 5806 5808 5807 5807 5806 5807 5807 5808 5808 5808 5808 5808 5808 5808 5807 5807 5807 5807 5807 5807 5806
5840 5839 5838 5837 5836 5836 5834 5833 5832 5831 5830 5828 5827 5825 5824 5822 5821 5819 5818 5816 5814 5813 5812 5810 5808 5806 5805 5804 5802 5800 5798 5797 5795 5794 5793 5792 5792 5792 5792 5792 5792 5791 5791 5791 5790 5791 5791 5791 5791 5792 5792 5793 5794 5795 5795 5796 5796 5797 5797 5798 5798 5799 5800 5802 5803 5805 5806 5806 5807 5807 5806 5806 5806 5807 5808 5807 5807 5807 5807 5807 5807 5807 5806 5806 5806 5806 5806 5806
5840 5839 5838 5837 5836 5835 5834 5833 5832 5831 5830 5828 5827 5826 5824 5823 5821 5820 5818 5817 5815 5813 5812 5811 5809 5807 5806 5804 5803 5801 5799 5798 5796 5795 5794 5793 5792 5793 5793 5793 5792 5792 5792 5792 5791 5791 5791 5791 5791 5792 5793 5793 5794 5795 5796 5796 5796 5797 5797 5798 5799 5800 5801 5802 5803 5805 5806 5806 5806 5806 5806 5806 5806 5807 5807 5807 5806 5806 5807 5807 5807 5806 5806 5806 5806 5805 5805 5805
5840 5839 5838 5837 5836 5835 5834 5833 5832 5831 5829 5828 5827 5826 5824 5823 5822 5820 5819 5817 5816 5814 5812 5811 5809 5808 5806 5805 5804 5802 5800 5799 5797 5796 5795 5794 5793 5793 5793 5793 5793 5793 5793 5793 5792 5792 5792 5792 5792 5792 5793 5794 5795 5796 5796 5797 5797 5798 5798 5798 5799 5800 5801 5802 5803 5804 5805 5805 5805 5806 5806 5805 5805 5806 5806 5806 5806 5806 5807 5807 5806 5806 5805 5805 5805 5805 5805 5804
5840 5839 5838 5837 5835 5835 5834 5833 5832 5831 5829 5828 5827 5826 5825 5823 5822 5820 5819 5818 5816 5815 5813 5812 5810 5808 5806 5805 5804 5803 5801 5800 5798 5797 5796 5795 5794 5793 5793 5793 5793 5793 5793 5793 5793 5793 5793 5793 5793 5793 5793 5794 5795 5796 5797 5797 5798 5798 5798 5799 5799 5799 5801 5802 5802 5803 5803 5804 5804 5805 5804 5804 5805 5805 5805 5805 5805 5806 5806 5806 5806 5805 5805 5805 5805 5805 5804 5803
5840 5839 5838 5836 5835 5834 5833 5833 5832 5830 5829 5828 5827 5826 5825 5823 5822 5820 5819 5818 5816 5815 5814 5812 5811 5809 5807 5805 5804 5803 5802 5801 5799 5798 5797 5796 5795 5794 5794 5793 5793 5793 5793 5794 5794 5794 5793 5793 5793 5793 5794 5794 5795 5796 5797 5798 5798 5798 5798 5798 5799 5799 5801 5802 5802 5802 5802 5803 5803 5803 5803 5803 5804 5804 5804 5805 5805 5805 5806 5806 5806 5805 5805 5805 5805 5805 5804 5803
5839 5838 5837 5836 5835 5834 5833 5832 5831 5830 5829 5828 5827 5826 5825 5823 5822 5820 5819 5817 5816 5815 5814 5813 5811 5809 5808 5806 5804 5803 5803 5802 5801 5799 5798 5797 5796 5795 5794 5794 5793 5793 5793 5794 5794 5794 5794 5794 5794 5794 5794 5795 5796 5796 5797 5798 5797 5797 5797 5798 5798 5798 5800 5801 5801 5801 5801 5801 5802 5802 5803 5803 5803 5804 5804 5804 5805 5805 5805 5805 5805 5805 5805 5805 5805 5805 5805 5804
5839 5838 5837 5836 5835 5833 5832 5831 5831 5830 5829 5828 5827 5826 5824 5823 5822 5820 5819 5817 5816 5815 5814 5813 5811 5810 5808 5807 5805 5804 5803 5802 5802 5801 5799 5798 5797 5796 5795 5794 5794 5793 5793 5793 5794 5794 5794 5795 5795 5795 5795 5796 5796 5797 5797 5797 5797 5797 5797 5798 5798 5798 5799 5800 5800 5800 5800 5800 5801 5802 5802 5803 5803 5803 5804 5804 5804 5805 5805 5805 5805 5805 5805 5805 5805 5805 5805 5805
5838 5837 5836 5835 5834 5833 5832 5831 5830 5829 5828 5827 5826 5826 5824 5823 5822 5821 5819 5817 5816 5815 5813 5812 5811 5810 5809 5807 5806 5805 5803 5803 5802 5802 5800 5799 5798 5797 5796 5795 5794 5793 5793 5793 5793 5794 5795 5795 5795 5796 5796 5796 5797 5797 5797 5797 5797 5797 5798 5798 5798 5798 5799 5799 5799 5800 5800 5800 5801 5802 5802 5802 5803 5803 5803 5804 5804 5804 5805 5805 5805 5805 5805 5805 5805 5805 5805 5805
5837 5836 5835 5834 5834 5832 5831 5830 5829 5828 5828 5827 5826 5825 5824 5822 5821 5820 5819 5817 5816 5815 5813 5812 5811 5810 5809 5807 5806 5805 5804 5803 5803 5802 5801 5800 5799 5798 5797 5796 5795 5794 5793 5793 5793 5794 5794 5795 5795 5796 5796 5797 5797 5797 5798 5797 5797 5798 5798 5798 5798 5798 5798 5798 5800 5800 5800 5800 5801 5801 5802 5802 5803 5803 5803 5803 5804 5804 5805 5805 5805 5805 5805 5805 5805 5804 5805 5805
5835 5835 5834 5833 5832 5831 5830 5829 5828 5827 5826 5826 5825 5824 5823 5822 5821 5820 5819 5817 5816 5815 5813 5812 5811 5810 5809 5808 5807 5806 5804 5803 5803 5802 5802 5801 5800 5799 5798 5797 5796 5795 5794 5793 5793 5794 5794 5794 5795 5796 5796 5797 5797 5798 5798 5798 5798 5798 5797 5797 5797 5797 5798 5798 5800 5800 5800 5800 5801 5801 5801 5802 5802 5803 5803 5803 5803 5804 5804 5804 5804 5805 5805 5804 5804 5804 5804 5805
5833 5833 5832 5832 5831 5830 5829 5828 5827 5826 5825 5824 5824 5823 5822 5821 5820 5819 5818 5817 5816 5814 5813 5812 5811 5810 5809 5807 5806 5806 5805 5804 5803 5803 5802 5801 5800 5799 5798 5798 5796 5795 5794 5794 5794 5794 5794 5794 5795 5796 5796 5797 5797 5798 5798 5798 5798 5798 5797 5797 5797 5797 5798 5798 5799 5799 5799 5800 5800 5800 5801 5801 5801 5802 5802 5802 5802 5803 5803 5804 5804 5804 5804 5804 5804 5804 5803 5804
5831 5831 5831 5830 5829 5828 5828 5827 5826 5825 5824 5823 5823 5822 5821 5821 5820 5818 5817 5816 5815 5814 5813 5811 5810 5810 5808 5807 5806 5805 5805 5804 5803 5803 5802 5802 5801 5799 5798 5797 5796 5795 5794 5794 5794 5794 5794 5794 5795 5795 5796 5796 5797 5798 5798 5798 5798 5798 5797 5797 5797 5798 5798 5798 5798 5798 5799 5799 5800 5800 5800 5800 5800 5801 5801 5801 5801 5802 5802 5803 5803 5803 5803 5803 5803 5803 5803 5803
5829 5829 5828 5828 5827 5827 5826 5826 5825 5824 5823 5822 5821 5821 5820 5820 5819 5818 5817 5816 5815 5813 5812 5811 5810 5809 5808 5807 5806 5805 5804 5803 5803 5802 5802 5801 5800 5799 5798 5797 5796 5796 5795 5795 5794 5794 5794 5794 5794 5795 5796 5796 5796 5797 5798 5798 5797 5797 5797 5797 5797 5798 5798 5798 5798 5798 5798 5799 5799 5799 5799 5799 5799 5800 5800 5800 5800 5801 5801 5801 5802 5802 5802 5803 5803 5803 5802 5802
5827 5827 5826 5826 5825 5825 5824 5824 5823 5823 5822 5821 5820 5819 5818 5818 5817 5816 5816 5815 5814 5813 5812 5810 5809 5808 5807 5806 5805 5805 5804 5803 5802 5802 5801 5801 5800 5799 5798 5797 5797 5796 5796 5795 5794 5794 5794 5794 5794 5795 5795 5795 5796 5797 5797 5797 5797 5797 5797 5797 5797 5797 5797 5797 5798 5798 5798 5798 5798 5798 5798 5798 5799 5799 5799 5799 5799 5800 5800 5800 5801 5801 5801 5801 5801 5802 5801 5801
5825 5824 5824 5824 5823 5823 5822 5822 5821 5821 5821 5820 5819 5818 5817 5816 5816 5815 5814 5814 5813 5812 5811 5810 5808 5807 5806 5805 5805 5804 5803 5802 5802 5801 5801 5800 5799 5798 5798 5797 5797 5796 5796 5795 5794 5794 5793 5793 5794 5794 5794 5795 5795 5796 5796 5797 5797 5797 5796 5796 5796 5796 5796 5796 5797 5797 5797 5797 5797 5797 5797 5797 5797 5798 5798 5798 5798 5799 5799 5799 5799 5800 5799 5799 5799 5800 5800 5799
5822 5822 5821 5821 5821 5820 5820 5820 5819 5819 5819 5818 5818 5817 5816 5815 5814 5814 5813 5813 5812 5811 5810 5809 5808 5807 5806 5805 5804 5803 5802 5802 5801 5801 5800 5800 5799 5798 5797 5796 5796 5796 5795 5795 5794 5793 5793 5793 5793 5793 5794 5794 5794 5795 5795 5795 5796 5796 5796 5796 5796 5795 5795 5795 5795 5795 5796 5796 5796 5796 5796 5796 5796 5796 5797 5797 5797 5797 5797 5798 5798 5798 5798 5798 5797 5798 5798 5797
5819 5819 5819 5819 5819 5818 5818 5817 5817 5817 5816 5816 5816 5815 5814 5813 5812 5812 5812 5811 5811 5810 5809 5808 5807 5806 5805 5804 5803 5802 5802 5801 5801 5800 5800 5799 5799 5797 5796 5796 5795 5795 5795 5795 5794 5793 5792 5792 5793 5793 5793 5794 5794 5794 5794 5794 5794 5794 5794 5794 5794 5794 5794 5794 5794 5794 5794 5794 5794 5794 5794 5794 5795 5795 5795 5795 5795 5795 5796 5796 5796 5796 5796 5796 5795 5795 5795 5795
5817 5817 5816 5816 5816 5816 5815 5815 5815 5814 5814 5814 5813 5813 5812 5811 5810 5810 5810 5809 5809 5808 5808 5807 5806 5805 5804 5803 5802 5801 5801 5800 5800 5800 5799 5799 5798 5797 5795 5795 5795 5794 5794 5794 5794 5793 5792 5792 5792 5792 5792 5793 5792 5792 5793 5793 5793 5793 5793 5793 5793 5793 5793 5793 5793 5793 5793 5793 5792 5792 5792 5792 5793 5793 5793 5793 5793 5794 5794 5795 5795 5794 5794 5794 5794 5793 5793 5793
5814 5814 5814 5813 5813 5813 5813 5812 5812 5812 5811 5811 5811 5811 5810 5809 5809 5808 5808 5807 5807 5806 5806 5805 5805 5804 5803 5802 5802 5800 5800 5799 5799 5799 5798 5798 5797 5796 5795 5794 5794 5794 5794 5794 5793 5792 5792 5792 5791 5791 5791 5791 5791 5791 5791 5792 5792 5792 5792 5792 5792 5792 5792 5792 5792 5792 5792 5791 5791 5791 5791 5791 5791 5792 5792 5792 5792 5792 5792 5793 5793 5792 5792 5792 5792 5792 5791 5791
5811 5811 5811 5810 5810 5810 5810 5810 5809 5809 5809 5808 5808 5809 5808 5807 5807 5806 5806 5805 5805 5804 5804 5803 5802 5802 5802 5801 5801 5799 5799 5798 5798 5797 5797 5796 5796 5795 5794 5794 5794 5794 5794 5793 5793 5792 5791 5791 5791 5791 5790 5790 5790 5790 5790 5790 5790 5790 5791 5791 5791 5791 5791 5790 5790 5790 5790 5790 5789 5789 5789 5788 5789 5790 5791 5790 5790 5791 5790 5790 5790 5790 5790 5790 5790 5790 5790 5789
5808 5808 5807 5807 5807 5806 5807 5807 5806 5805 5806 5805 5805 5806 5805 5804 5804 5804 5803 5803 5802 5802 5802 5801 5800 5800 5799 5799 5799 5798 5797 5797 5796 5796 5796 5795 5795 5794 5794 5793 5793 5793 5793 5793 5792 5792 5791 5791 5791 5790 5790 5790 5790 5789 5789 5789 5788 5788 5789 5789 5789 5789 5789 5789 5789 5788 5788 5787 5787 5787 5787 5786 5786 5788 5789 5788 5788 5788 5788 5788 5788 5788 5788 5787 5787 5787 5787 5787
5804 5804 5804 5804 5804 5803 5803 5803 5802 5802 5802 5802 5802 5802 5802 5801 5801 5801 5801 5800 5800 5800 5799 5798 5798 5798 5797 5797 5797 5797 5796 5795 5795 5795 5794 5794 5794 5794 5793 5792 5792 5792 5792 5792 5791 5791 5790 5790 5790 5790 5789 5789 5789 5788 5788 5788 5787 5787 5787 5787 5787 5787 5787 5787 5787 5787 5786 5786 5786 5785 5785 5784 5784 5786 5787 5786 5786 5786 5786 5786 5787 5786 5786 5785 5785 5785 5785 5785
5800 5801 5800 5800 5800 5800 5800 5799 5798 5798 5798 5798 5798 5798 5798 5798 5798 5798 5798 5798 5797 5797 5797 5796 5796 5795 5795 5795 5795 5795 5794 5793 5793 5793 5793 5793 5793 5792 5792 5792 5791 5791 5791 5791 5790 5789 5789 5789 5788 5788 5788 5787 5787 5787 5786 5786 5786 5785 5785 5784 5785 5785 5785 5785 5785 5785 5784 5785 5785 5784 5783 5782 5782 5784 5785 5784 5784 5784 5784 5784 5785 5784 5784 5783 5782 5782 5782 5782
5795 5796 5796 5796 5796 5797 5796 5795 5795 5794 5794 5794 5794 5794 5794 5794 5794 5794 5794 5794 5794 5793 5794 5794 5794 5793 5792 5793 5793 5793 5792 5792 5791 5791 5791 5791 5791 5791 5791 5790 5790 5790 5789 5789 5788 5788 5787 5787 5787 5786 5786 5786 5786 5786 5785 5785 5784 5784 5783 5783 5783 5783 5783 5783 5783 5783 5783 5783 5783 5782 5781 5780 5780 5782 5782 5781 5781 5781 5781 5781 5781 5782 5782 5781 5780 5779 5779 5779
5790 5791 5792 5792 5792 5792 5793 5792 5791 5790 5790 5790 5790 5790 5790 5789 5790 5791 5791 5790 5790 5790 5791 5791 5791 5791 5790 5790 5790 5790 5790 5789 5789 5789 5789 5789 5789 5789 5788 5788 5788 5788 5787 5787 5787 5786 5786 5786 5785 5785 5784 5784 5784 5784 5783 5783 5783 5783 5782 5782 5781 5781 5781 5781 5780 5780 5780 5780 5780 5779 5779 5779 5779 5779 5779 5778 5778 5777 5777 5778 5778 5779 5779 5779 5778 5777 5777 5776
5785 5786 5787 5787 5787 5787 5788 5788 5787 5787 5786 5786 5786 5786 5785 5785 5786 5788 5787 5786 5786 5787 5787 5787 5787 5788 5787 5787 5786 5786 5787 5786 5786 5786 5786 5786 5786 5786 5786 5786 5786 5786 5785 5785 5785 5785 5785 5784 5784 5784 5783 5783 5782 5782 5782 5781 5781 5781 5781 5780 5780 5779 5779 5779 5778 5778 5778 5777 5777 5776 5776 5776 5776 5776 5775 5775 5775 5774 5775 5775 5775 5776 5776 5777 5776 5775 5775 5774
5779 5781 5782 5782 5782 5783 5783 5783 5783 5782 5782 5782 5782 5781 5781 5781 5783 5783 5782 5781 5782 5783 5784 5784 5784 5785 5785 5784 5783 5783 5784 5783 5783 5783 5783 5784 5783 5783 5783 5782 5782 5783 5783 5783 5783 5784 5783 5783 5783 5782 5781 5781 5780 5780 5779 5779 5779 5779 5779 5778 5778 5778 5777 5777 5777 5776 5776 5775 5775 5774 5774 5774 5774 5773 5773 5772 5772 5772 5772 5772 5772 5773 5773 5773 5773 5773 5773 5772
5773 5775 5776 5777 5777 5777 5778 5778 5778 5778 5777 5777 5777 5776 5777 5778 5778 5778 5777 5777 5778 5779 5780 5781 5781 5781 5782 5782 5780 5780 5780 5780 5780 5780 5781 5781 5781 5780 5780 5779 5779 5779 5780 5780 5780 5781 5781 5782 5781 5780 5780 5779 5779 5778 5778 5778 5777 5777 5777 5776 5776 5776 5775 5774 5774 5774 5773 5773 5773 5773 5772 5772 5772 5771 5771 5770 5770 5769 5769 5769 5769 5769 5770 5770 5770 5770 5770 5769
5767 5768 5770 5771 5771 5772 5773 5773 5773 5773 5773 5773 5772 5771 5773 5774 5774 5773 5773 5773 5774 5775 5776 5777 5778 5778 5778 5778 5778 5777 5777 5777 5776 5776 5777 5778 5779 5779 5778 5776 5776 5776 5776 5776 5777 5777 5778 5779 5779 5778 5778 5777 5777 5777 5776 5776 5775 5775 5775 5774 5774 5773 5773 5772 5771 5771 5771 5770 5771 5771 5771 5770 5770 5769 5768 5767 5767 5767 5767 5767 5767 5767 5767 5767 5767 5766 5766 5766
5760 5762 5764 5765 5764 5765 5767 5767 5767 5767 5768 5767 5767 5767 5769 5770 5770 5770 5769 5769 5770 5771 5772 5773 5774 5774 5774 5774 5775 5774 5774 5774 5773 5773 5774 5774 5776 5777 5776 5774 5773 5773 5772 5772 5773 5774 5775 5775 5775 5775 5775 5775 5775 5775 5775 5775 5774 5773 5772 5772 5772 5771 5770 5770 5769 5768 5767 5767 5767 5768 5769 5768 5768 5767 5765 5765 5764 5765 5765 5765 5765 5764 5764 5763 5763 5763 5763 5763
5753 5755 5757 5758 5757 5758 5760 5761 5761 5761 5762 5761 5762 5764 5765 5766 5767 5766 5765 5765 5766 5768 5768 5769 5769 5770 5770 5771 5771 5771 5771 5771 5770 5770 5771 5770 5771 5773 5774 5772 5770 5770 5770 5769 5770 5771 5771 5772 5773 5772 5773 5773 5773 5773 5773 5773 5772 5772 5770 5770 5770 5769 5768 5767 5766 5765 5764 5763 5763 5765 5766 5767 5766 5764 5763 5762 5761 5761 5762 5762 5762 5762 5761 5761 5760 5760 5760 5761
5746 5748 5750 5751 5750 5751 5753 5754 5754 5755 5754 5755 5757 5759 5761 5762 5762 5761 5760 5761 5762 5763 5764 5765 5765 5765 5766 5767 5767 5767 5767 5767 5767 5767 5768 5767 5768 5769 5770 5769 5768 5768 5768 5768 5767 5768 5768 5769 5770 5771 5770 5770 5770 5771 5770 5770 5769 5769 5769 5768 5768 5767 5766 5765 5764 5763 5763 5761 5760 5760 5762 5765 5765 5763 5761 5759 5758 5758 5759 5759 5760 5759 5759 5759 5758 5758 5758 5758
5738 5740 5742 5743 5743 5744 5746 5747 5747 5747 5748 5750 5752 5754 5756 5757 5756 5756 5756 5756 5757 5758 5759 5760 5761 5761 5762 5762 5763 5763 5763 5763 5763 5763 5763 5763 5764 5765 5765 5765 5765 5765 5765 5765 5765 5764 5764 5764 5766 5767 5767 5767 5767 5767 5767 5766 5765 5765 5765 5765 5765 5765 5764 5763 5762 5762 5761 5759 5757 5757 5757 5762 5763 5760 5759 5757 5755 5755 5755 5756 5756 5756 5756 5756 5756 5756 5755 5755
5729 5732 5735 5735 5735 5737 5738 5739 5740 5741 5742 5743 5746 5748 5749 5750 5750 5751 5751 5751 5752 5753 5754 5755 5756 5757 5757 5758 5759 5759 5758 5758 5759 5758 5758 5759 5760 5760 5760 5761 5761 5761 5761 5761 5761 5760 5760 5759 5759 5760 5762 5763 5764 5763 5763 5763 5762 5761 5761 5761 5762 5761 5760 5759 5758 5759 5758 5756 5755 5753 5753 5757 5760 5758 5756 5755 5753 5753 5752 5752 5752 5752 5753 5753 5753 5753 5752 5752
5721 5724 5726 5726 5727 5729 5731 5731 5733 5734 5735 5737 5740 5742 5742 5742 5743 5745 5745 5745 5746 5748 5749 5750 5750 5751 5753 5754 5755 5755 5754 5754 5755 5755 5755 5755 5756 5756 5756 5756 5756 5757 5757 5757 5757 5756 5756 5755 5754 5755 5756 5758 5759 5760 5760 5759 5758 5758 5758 5757 5758 5757 5756 5756 5754 5755 5754 5751 5752 5751 5748 5752 5758 5756 5753 5753 5751 5750 5749 5748 5748 5748 5748 5749 5749 5749 5749 5749
5712 5715 5716 5717 5719 5721 5722 5724 5726 5728 5729 5732 5734 5734 5735 5735 5736 5738 5740 5740 5740 5742 5744 5745 5746 5746 5747 5749 5750 5750 5750 5750 5751 5751 5752 5751 5752 5752 5752 5752 5752 5752 5753 5754 5754 5753 5752 5751 5750 5751 5751 5752 5754 5756 5757 5757 5755 5754 5754 5754 5753 5753 5753 5752 5751 5751 5750 5748 5749 5748 5744 5748 5754 5752 5750 5750 5748 5747 5745 5744 5744 5744 5744 5744 5744 5745 5745 5745
5704 5706 5707 5708 5710 5712 5714 5717 5720 5722 5724 5725 5726 5727 5728 5728 5730 5732 5734 5734 5734 5735 5738 5739 5740 5741 5742 5743 5744 5744 5745 5745 5746 5747 5747 5747 5748 5748 5748 5747 5748 5748 5749 5750 5750 5750 5749 5748 5746 5747 5747 5748 5749 5750 5752 5753 5752 5751 5751 5750 5750 5749 5749 5748 5748 5747 5746 5746 5747 5744 5741 5745 5749 5747 5747 5747 5745 5743 5742 5741 5741 5740 5740 5741 5741 5741 5741 5741
5696 5697 5699 5700 5702 5704 5707 5711 5713 5714 5716 5717 5718 5720 5721 5722 5724 5726 5727 5728 5728 5729 5731 5733 5734 5735 5736 5737 5737 5738 5739 5740 5741 5741 5743 5744 5744 5744 5744 5744 5744 5745 5745 5745 5745 5745 5745 5745 5744 5744 5744 5744 5745 5745 5746 5747 5747 5748 5748 5747 5746 5745 5744 5744 5744 5743 5742 5744 5743 5739 5739 5743 5743 5742 5743 5743 5741 5740 5738 5737 5736 5736 5737 5738 5738 5738 5737 5736
5686 5689 5691 5692 5694 5697 5700 5703 5705 5707 5709 5710 5710 5713 5714 5716 5718 5719 5720 5722 5722 5723 5724 5725 5727 5728 5729 5730 5731 5732 5733 5734 5735 5736 5737 5739 5740 5740 5740 5740 5741 5741 5741 5741 5741 5740 5740 5740 5741 5741 5740 5740 5741 5740 5740 5741 5741 5742 5744 5744 5743 5741 5740 5739 5738 5738 5740 5739 5737 5736 5737 5738 5738 5738 5738 5739 5737 5735 5734 5733 5731 5731 5733 5734 5734 5734 5734 5733
5677 5681 5684 5684 5685 5689 5693 5696 5697 5699 5701 5702 5703 5705 5707 5709 5711 5712 5714 5715 5716 5717 5718 5718 5720 5722 5723 5724 5726 5727 5727 5729 5730 5731 5732 5733 5735 5736 5736 5737 5738 5738 5737 5737 5737 5736 5736 5735 5736 5736 5736 5736 5736 5736 5736 5736 5736 5736 5738 5739 5739 5738 5736 5735 5734 5735 5736 5733 5732 5734 5734 5732 5733 5734 5734 5735 5734 5730 5729 5728 5727 5727 5729 5730 5731 5730 5730 5730
5669 5673 5675 5675 5678 5681 5685 5688 5689 5690 5692 5694 5696 5699 5700 5702 5704 5705 5706 5708 5710 5712 5712 5712 5714 5716 5717 5718 5720 5721 5722 5723 5724 5725 5726 5727 5729 5730 5731 5733 5734 5734 5733 5732 5732 5732 5731 5731 5731 5731 5731 5731 5732 5732 5732 5732 5732 5732 5732 5733 5734 5733 5732 5732 5733 5732 5731 5728 5728 5730 5728 5727 5729 5730 5731 5732 5730 5726 5724 5723 5723 5724 5725 5726 5727 5727 5727 5727
5660 5664 5666 5667 5670 5673 5676 5680 5681 5681 5684 5686 5688 5692 5694 5695 5697 5697 5699 5701 5703 5705 5706 5706 5708 5709 5711 5712 5713 5714 5715 5717 5717 5719 5720 5721 5722 5723 5725 5727 5728 5728 5728 5728 5727 5727 5727 5727 5727 5726 5726 5726 5727 5727 5727 5727 5727 5727 5727 5727 5727 5727 5728 5730 5730 5729 5727 5724 5724 5724 5722 5722 5724 5725 5727 5727 5725 5722 5721 5720 5720 5721 5720 5721 5723 5724 5724 5723
5651 5655 5657 5659 5662 5665 5668 5671 5672 5674 5676 5678 5681 5684 5687 5688 5689 5690 5692 5694 5695 5697 5700 5700 5701 5703 5704 5705 5707 5708 5709 5710 5711 5712 5713 5714 5716 5717 5719 5720 5721 5722 5723 5723 5722 5722 5722 5722 5722 5722 5721 5721 5722 5722 5722 5722 5722 5721 5721 5721 5720 5723 5725 5725 5725 5724 5723 5721 5722 5721 5717 5717 5720 5722 5721 5721 5720 5719 5718 5717 5717 5717 5716 5717 5719 5720 5720 5720
5643 5646 5648 5650 5653 5656 5659 5662 5664 5666 5668 5671 5673 5676 5679 5680 5682 5683 5685 5686 5688 5690 5692 5694 5695 5696 5698 5699 5700 5701 5702 5703 5704 5705 5707 5708 5709 5711 5712 5714 5714 5715 5716 5717 5717 5718 5718 5718 5717 5717 5716 5716 5717 5717 5717 5717 5716 5715 5715 5715 5716 5719 5720 5719 5719 5720 5719 5718 5718 5716 5713 5714 5717 5716 5715 5715 5715 5715 5714 5714 5713 5713 5713 5714 5715 5715 5715 5715
5634 5636 5639 5641 5644 5648 5651 5654 5656 5658 5661 5664 5666 5668 5670 5672 5674 5676 5677 5679 5681 5683 5685 5687 5688 5690 5691 5692 5693 5695 5696 5697 5697 5699 5700 5701 5703 5705 5706 5707 5708 5708 5709 5710 5712 5713 5713 5713 5713 5712 5711 5711 5712 5712 5711 5711 5710 5709 5711 5713 5714 5713 5712 5712 5714 5715 5714 5712 5711 5710 5710 5711 5711 5710 5710 5710 5710 5710 5710 5710 5710 5710 5710 5710 5710 5711 5711 5710